GW5964 Weather Reports


time (UTC)temp
C
wind
direction
speed
KPH
gust
KPH
rain 1hr
cm
rain 24hr
cm
rain mn
cm
humidity
%
barometer
mb
20260510164423 23 169 3.2 4.8 0.00 0.00 0.00 50 1016.8
20260510163922 22 77 3.2 4.8 0.00 0.00 0.00 49 1016.8
20260510163419 22 322 11.3 14.5 0.00 0.00 0.00 46 1017.0
20260510162919 23 40 6.4 6.4 0.00 0.00 0.00 49 1017.0
20260510162417 23 109 1.6 3.2 0.00 0.00 0.00 52 1017.1
20260510161913 23 123 4.8 9.7 0.00 0.00 0.00 49 1017.0
20260510161408 23 150 3.2 4.8 0.00 0.00 0.00 53 1017.2
20260510160905 22 154 6.4 9.7 0.00 0.00 0.00 50 1017.3
20260510160403 22 77 6.4 12.9 0.00 0.00 0.00 50 1017.3
20260510155901 22 198 6.4 11.3 0.00 0.00 0.00 50 1017.3
20260510155359 22 160 6.4 11.3 0.00 0.00 0.00 53 1017.3
20260510154854 22 114 6.4 6.4 0.00 0.00 0.00 52 1017.2
20260510154351 21 280 6.4 9.7 0.00 0.00 0.00 56 1017.3
20260510153845 22 275 1.6 3.2 0.00 0.00 0.00 56 1017.4
20260510153341 22 241 6.4 11.3 0.00 0.00 0.00 53 1017.3
20260510152838 21 298 3.2 4.8 0.00 0.00 0.00 54 1017.2
20260510152335 21 140 3.2 4.8 0.00 0.00 0.00 54 1017.0
20260510151831 21 308 8.0 9.7 0.00 0.00 0.00 55 1017.2
20260510151329 20 316 4.8 4.8 0.00 0.00 0.00 58 1017.2
20260510150825 21 359 4.8 4.8 0.00 0.00 0.00 55 1017.2
20260510150321 22 146 1.6 1.6 0.00 0.00 0.00 57 1017.2
20260510145817 22 110 0.0 1.6 0.00 0.00 0.00 60 1017.0
20260510145314 21 134 1.6 1.6 0.00 0.00 0.00 60 1017.0
20260510144810 21 329 6.4 11.3 0.00 0.00 0.00 60 1017.1
20260510144307 21 162 0.0 1.6 0.00 0.00 0.00 60 1017.1
20260510143807 21 141 3.2 6.4 0.00 0.00 0.00 62 1017.1
20260510143303 20 289 4.8 4.8 0.00 0.00 0.00 63 1017.0
20260510142800 20 335 6.4 6.4 0.00 0.00 0.00 62 1017.0
20260510142256 20 177 4.8 6.4 0.00 0.00 0.00 62 1016.8
20260510141754 20 208 4.8 9.7 0.00 0.00 0.00 62 1017.0
20260510141252 20 146 1.6 3.2 0.00 0.00 0.00 65 1016.9
20260510140748 20 147 0.0 1.6 0.00 0.00 0.00 62 1017.0
20260510140244 20 161 3.2 4.8 0.00 0.00 0.00 64 1016.9
20260510135737 20 69 1.6 1.6 0.00 0.00 0.00 65 1017.0
20260510135233 19 280 1.6 3.2 0.00 0.00 0.00 67 1017.0
20260510134731 19 127 0.0 1.6 0.00 0.00 0.00 67 1016.9
20260510134228 18 95 1.6 3.2 0.00 0.00 0.00 69 1017.0
20260510133724 18 102 1.6 3.2 0.00 0.00 0.00 70 1016.9
20260510133220 17 74 1.6 1.6 0.00 0.00 0.00 71 1016.9
20260510132716 17 15 1.6 3.2 0.00 0.00 0.00 69 1017.0
20260510132214 17 195 1.6 3.2 0.00 0.00 0.00 71 1017.1
20260510131711 17 212 3.2 4.8 0.00 0.00 0.00 71 1017.1
20260510131209 17 272 1.6 1.6 0.00 0.00 0.00 73 1017.0
20260510130659 16 270 3.2 6.4 0.00 0.00 0.00 74 1017.0
20260510130156 16 335 1.6 3.2 0.00 0.00 0.00 76 1016.9
20260510125652 16 118 1.6 3.2 0.00 0.00 0.00 75 1017.1
20260510125148 16 137 3.2 3.2 0.00 0.00 0.00 75 1017.2
20260510124646 16 87 0.0 0.0 0.00 0.00 0.00 77 1017.1
20260510124142 16 159 1.6 3.2 0.00 0.00 0.00 78 1017.1
20260510123638 15 109 1.6 1.6 0.00 0.00 0.00 78 1017.3
20260510123134 15 127 1.6 3.2 0.00 0.00 0.00 79 1017.1
20260510122630 14 244 3.2 4.8 0.00 0.00 0.00 82 1017.1
20260510122126 13 344 3.2 3.2 0.00 0.00 0.00 86 1017.1
20260510121623 13 118 3.2 3.2 0.00 0.00 0.00 91 1017.1
20260510121120 12 108 0.0 0.0 0.00 0.00 0.00 97 1016.9
20260510120618 12 76 0.0 0.0 0.00 0.00 0.00 98 1017.0
20260510120113 11 85 0.0 0.0 0.00 0.00 0.00 98 1016.6
20260510115610 11 112 0.0 1.6 0.00 0.00 0.00 99 1016.7
20260510115108 10 79 0.0 0.0 0.00 0.00 0.00 99 1016.6
20260510114603 10 76 0.0 0.0 0.00 0.00 0.00 99 1016.5
20260510114059 9 73 0.0 0.0 0.00 0.00 0.00 99 1016.6
20260510113555 8 74 0.0 0.0 0.00 0.00 0.00 99 1016.5
20260510113053 8 89 0.0 0.0 0.00 0.00 0.00 99 1016.3
20260510112549 8 74 0.0 0.0 0.00 0.00 0.00 99 1016.3
20260510112045 8 73 0.0 0.0 0.00 0.00 0.00 99 1016.3
20260510111542 7 75 0.0 0.0 0.00 0.00 0.00 99 1016.3
20260510111038 7 79 0.0 0.0 0.00 0.00 0.00 99 1016.3
20260510110534 6 68 0.0 0.0 0.00 0.00 0.00 98 1016.0
20260510110031 7 75 0.0 0.0 0.00 0.00 0.00 99 1016.1
20260510105526 7 77 0.0 0.0 0.00 0.00 0.00 99 1016.2
20260510105021 6 79 0.0 0.0 0.00 0.00 0.00 99 1016.0
20260510104518 6 83 0.0 0.0 0.00 0.00 0.00 99 1016.0
20260510104014 6 84 0.0 0.0 0.00 0.00 0.00 99 1015.8
20260510103506 6 76 0.0 0.0 0.00 0.00 0.00 99 1016.0
20260510103001 5 72 0.0 0.0 0.00 0.00 0.00 99 1015.8
20260510102452 5 74 0.0 0.0 0.00 0.00 0.00 99 1015.6
20260510101949 5 84 0.0 0.0 0.00 0.00 0.00 99 1015.6
20260510101447 5 84 0.0 0.0 0.00 0.00 0.00 99 1015.3
20260510100945 5 81 0.0 0.0 0.00 0.00 0.00 99 1015.4
20260510100441 5 81 0.0 0.0 0.00 0.00 0.00 99 1015.2
20260510095937 5 87 0.0 0.0 0.00 0.00 0.00 99 1015.2
20260510095433 5 81 0.0 0.0 0.00 0.00 0.00 99 1015.2
20260510094932 5 86 0.0 0.0 0.00 0.00 0.00 99 1015.0
20260510094427 5 81 0.0 0.0 0.00 0.00 0.00 99 1015.2
20260510093923 5 76 0.0 0.0 0.00 0.00 0.00 99 1014.9
20260510093419 5 82 0.0 0.0 0.00 0.00 0.00 99 1015.1
20260510092915 5 84 0.0 0.0 0.00 0.00 0.00 99 1015.0
20260510092413 5 89 0.0 0.0 0.00 0.00 0.00 99 1015.0
20260510091907 5 81 0.0 0.0 0.00 0.00 0.00 99 1015.0
20260510091404 5 81 0.0 0.0 0.00 0.00 0.00 99 1014.9
20260510090901 5 81 0.0 0.0 0.00 0.00 0.00 98 1014.9
20260510090357 5 80 0.0 0.0 0.00 0.00 0.00 98 1014.8
20260510085853 5 84 0.0 0.0 0.00 0.00 0.00 98 1014.8
20260510085348 5 84 0.0 0.0 0.00 0.00 0.00 99 1014.7
20260510084838 5 85 0.0 0.0 0.00 0.00 0.00 98 1014.7
20260510084336 5 88 0.0 0.0 0.00 0.00 0.00 98 1014.6
20260510083832 5 84 0.0 0.0 0.00 0.00 0.00 98 1014.7
20260510083329 5 84 0.0 0.0 0.00 0.00 0.00 98 1014.6
20260510082824 5 85 0.0 0.0 0.00 0.00 0.00 98 1014.5
20260510082322 5 85 0.0 0.0 0.00 0.00 0.00 98 1014.5
20260510081820 5 85 0.0 0.0 0.00 0.00 0.00 98 1014.6
20260510081316 5 87 0.0 0.0 0.00 0.00 0.00 98 1014.5
20260510080812 5 87 0.0 0.0 0.00 0.00 0.00 98 1014.5
20260510080307 5 84 0.0 0.0 0.00 0.00 0.00 98 1014.6
20260510075804 5 84 0.0 0.0 0.00 0.00 0.00 98 1014.4
20260510075305 5 84 0.0 0.0 0.00 0.00 0.00 98 1014.4
20260510074759 5 84 0.0 0.0 0.00 0.00 0.00 98 1014.6
20260510074255 5 86 0.0 0.0 0.00 0.00 0.00 98 1014.4
20260510073751 5 87 0.0 0.0 0.00 0.00 0.00 98 1014.4
20260510073247 5 84 0.0 0.0 0.00 0.00 0.00 98 1014.5
20260510072743 5 78 0.0 0.0 0.00 0.00 0.00 98 1014.5
20260510072240 5 79 0.0 0.0 0.00 0.00 0.00 98 1014.5
20260510071737 5 86 0.0 0.0 0.00 0.00 0.00 98 1014.6
20260510071233 5 74 0.0 0.0 0.00 0.00 0.00 98 1014.5
20260510070732 5 74 0.0 0.0 0.00 0.00 0.00 98 1014.5
20260510070229 5 83 0.0 0.0 0.00 0.00 0.00 98 1014.4
20260510065723 5 89 0.0 0.0 0.00 0.00 0.00 98 1014.3
20260510065220 5 87 0.0 0.0 0.00 0.00 0.00 98 1014.4
20260510064716 5 76 0.0 0.0 0.00 0.00 0.00 98 1014.3
20260510064214 5 78 0.0 0.0 0.00 0.00 0.00 98 1014.0
20260510063711 5 80 0.0 0.0 0.00 0.00 0.00 98 1014.3
20260510063207 5 80 0.0 0.0 0.00 0.00 0.00 98 1014.1
20260510062703 5 80 0.0 0.0 0.00 0.00 0.00 97 1014.3
20260510062159 5 80 0.0 0.0 0.00 0.00 0.00 98 1014.1
20260510061654 5 80 0.0 0.0 0.00 0.00 0.00 98 1014.3
20260510061152 5 80 0.0 0.0 0.00 0.00 0.00 98 1014.3
20260510060648 5 79 0.0 0.0 0.00 0.00 0.00 98 1014.1
20260510060145 5 79 0.0 0.0 0.00 0.00 0.00 97 1014.3
20260510055641 5 79 0.0 0.0 0.00 0.00 0.00 97 1014.3
20260510055140 5 79 0.0 0.0 0.00 0.00 0.00 97 1014.4
20260510054636 5 78 0.0 0.0 0.00 0.00 0.00 97 1014.3
20260510054132 5 78 0.0 0.0 0.00 0.00 0.00 97 1014.4
20260510053630 5 84 0.0 0.0 0.00 0.00 0.00 97 1014.4
20260510053127 5 81 0.0 0.0 0.00 0.00 0.00 97 1014.4
20260510052623 6 78 0.0 0.0 0.00 0.00 0.00 97 1014.4
20260510052119 6 85 0.0 0.0 0.00 0.00 0.00 97 1014.5
20260510051615 6 92 1.6 1.6 0.00 0.00 0.00 97 1014.4
20260510051112 6 81 0.0 0.0 0.00 0.00 0.00 97 1014.3
20260510050609 6 80 0.0 0.0 0.00 0.00 0.00 97 1014.5
20260510050107 6 86 0.0 0.0 0.00 0.00 0.00 97 1014.4
20260510045604 6 77 0.0 0.0 0.00 0.00 0.00 97 1014.4
20260510045100 6 79 0.0 0.0 0.00 0.00 0.00 97 1014.5
20260510044556 6 79 0.0 0.0 0.00 0.00 0.00 97 1014.0
20260510044054 6 79 0.0 0.0 0.00 0.00 0.00 97 1014.5
20260510043549 6 80 0.0 0.0 0.00 0.00 0.00 97 1014.5
20260510043045 6 76 0.0 0.0 0.00 0.00 0.00 96 1014.5
20260510042544 6 79 0.0 0.0 0.00 0.00 0.00 96 1014.5
20260510042040 6 78 0.0 0.0 0.00 0.00 0.00 96 1014.5
20260510041537 6 81 0.0 0.0 0.00 0.00 0.00 96 1014.3
20260510041034 6 81 0.0 0.0 0.00 0.00 0.00 96 1014.4
20260510040525 6 81 0.0 0.0 0.00 0.00 0.00 96 1014.4
20260510040021 6 81 0.0 0.0 0.00 0.00 0.00 96 1014.3
20260510035518 7 82 0.0 0.0 0.00 0.00 0.00 96 1014.5
20260510035017 7 82 0.0 0.0 0.00 0.00 0.00 96 1014.1
20260510034516 7 82 0.0 0.0 0.00 0.00 0.00 95 1014.1
20260510034012 7 82 0.0 0.0 0.00 0.00 0.00 95 1014.3
20260510033508 7 82 0.0 0.0 0.00 0.00 0.00 95 1014.4
20260510033007 7 82 0.0 0.0 0.00 0.00 0.00 95 1014.4
20260510032502 7 81 0.0 0.0 0.00 0.00 0.00 95 1014.3
20260510031957 7 81 0.0 0.0 0.00 0.00 0.00 95 1014.0
20260510031453 7 81 0.0 0.0 0.00 0.00 0.00 95 1014.1
20260510030949 7 85 0.0 0.0 0.00 0.00 0.00 94 1014.0
20260510030444 8 85 0.0 0.0 0.00 0.00 0.00 94 1014.1
20260510025942 8 78 0.0 0.0 0.00 0.00 0.00 94 1014.3
20260510025439 8 76 0.0 0.0 0.00 0.00 0.00 94 1014.3
20260510024936 8 84 0.0 0.0 0.00 0.00 0.00 94 1014.3
20260510024433 8 85 0.0 0.0 0.00 0.00 0.00 93 1014.4
20260510023928 8 82 0.0 0.0 0.00 0.00 0.00 93 1014.0
20260510023424 8 79 0.0 0.0 0.00 0.00 0.00 93 1014.0
20260510022922 8 79 0.0 0.0 0.00 0.00 0.00 92 1014.0
20260510022420 8 76 0.0 0.0 0.00 0.00 0.00 92 1013.9
20260510021920 8 79 0.0 0.0 0.00 0.00 0.00 92 1014.0
20260510021418 8 78 0.0 0.0 0.00 0.00 0.00 91 1013.8
20260510020915 8 81 0.0 0.0 0.00 0.00 0.00 91 1013.7
20260510020410 9 81 0.0 0.0 0.00 0.00 0.00 91 1013.6
20260510015905 10 80 0.0 0.0 0.00 0.00 0.00 90 1013.5
20260510015401 9 79 0.0 0.0 0.00 0.00 0.00 89 1013.6
20260510014856 10 80 0.0 0.0 0.00 0.00 0.00 89 1013.4
20260510014354 10 80 0.0 0.0 0.00 0.00 0.00 89 1013.2
20260510013850 10 75 0.0 0.0 0.00 0.00 0.00 88 1013.0
20260510013346 10 75 0.0 0.0 0.00 0.00 0.00 87 1013.0
20260510012841 10 72 0.0 0.0 0.00 0.00 0.00 87 1013.0
20260510012336 10 74 0.0 0.0 0.00 0.00 0.00 87 1012.9
20260510011831 10 75 0.0 0.0 0.00 0.00 0.00 86 1012.8
20260510011326 11 82 0.0 0.0 0.00 0.00 0.00 86 1012.7
20260510010823 11 87 0.0 0.0 0.00 0.00 0.00 85 1012.8
20260510010321 11 85 0.0 0.0 0.00 0.00 0.00 84 1012.7
20260510005817 12 75 0.0 0.0 0.00 0.00 0.00 83 1012.6
20260510005313 12 75 0.0 0.0 0.00 0.00 0.00 83 1012.4
20260510004811 12 76 0.0 0.0 0.00 0.00 0.00 82 1012.4
20260510004308 12 77 0.0 0.0 0.00 0.00 0.00 82 1012.4
20260510003805 12 77 0.0 0.0 0.00 0.00 0.00 80 1012.6
20260510003303 13 81 0.0 0.0 0.00 0.00 0.00 79 1012.3
20260510002801 13 82 0.0 0.0 0.00 0.00 0.00 78 1012.3
20260510002259 14 77 0.0 0.0 0.00 0.00 0.00 76 1012.1
20260510001755 15 78 0.0 0.0 0.00 0.00 0.00 75 1012.1
20260510001253 15 91 0.0 0.0 0.00 0.00 0.00 70 1012.3
20260510000749 15 120 1.6 1.6 0.00 0.00 0.00 68 1012.1
20260510000248 15 122 0.0 0.0 0.00 0.00 0.00 67 1011.9
20260509235744 16 34 1.6 1.6 0.00 0.00 0.00 67 1012.0
20260509235240 16 353 1.6 1.6 0.00 0.00 0.00 65 1011.9
20260509234736 17 85 0.0 0.0 0.00 0.00 0.00 63 1011.9
20260509234233 17 127 3.2 3.2 0.00 0.00 0.00 62 1011.8
20260509233731 18 130 1.6 1.6 0.00 0.00 0.00 61 1011.8
20260509233229 17 132 0.0 0.0 0.00 0.00 0.00 59 1011.9
20260509232724 17 237 4.8 4.8 0.00 0.00 0.00 59 1011.8
20260509232222 17 74 1.6 3.2 0.00 0.00 0.00 60 1011.8
20260509231717 17 117 0.0 1.6 0.00 0.00 0.00 60 1011.8
20260509231215 17 12 1.6 3.2 0.00 0.00 0.00 59 1011.6
20260509230712 17 7 1.6 1.6 0.00 0.00 0.00 59 1011.6
20260509230203 18 56 3.2 4.8 0.00 0.00 0.00 58 1011.6
20260509225659 18 132 1.6 1.6 0.00 0.00 0.00 55 1011.6
20260509225155 19 230 1.6 3.2 0.00 0.00 0.00 54 1011.5
20260509224650 19 304 3.2 6.4 0.00 0.00 0.00 53 1011.7
20260509224147 19 297 3.2 3.2 0.00 0.00 0.00 53 1011.8
20260509223644 19 77 1.6 3.2 0.00 0.00 0.00 55 1011.7
20260509223141 18 279 4.8 6.4 0.00 0.00 0.00 54 1011.9
20260509222638 18 76 0.0 1.6 0.00 0.00 0.00 55 1011.8
20260509222133 20 97 3.2 3.2 0.00 0.00 0.00 54 1011.9
20260509221631 20 273 3.2 6.4 0.00 0.00 0.00 53 1012.0
20260509221126 18 141 3.2 4.8 0.00 0.00 0.00 54 1012.0
20260509220622 18 173 1.6 1.6 0.00 0.00 0.00 54 1011.9
20260509220119 18 84 0.0 1.6 0.00 0.00 0.00 55 1011.9
20260509215615 18 42 0.0 0.0 0.00 0.00 0.00 57 1012.0
20260509215112 18 173 3.2 3.2 0.00 0.00 0.00 55 1012.0
20260509214608 18 323 6.4 9.7 0.00 0.00 0.00 53 1012.0
20260509214105 18 355 3.2 4.8 0.00 0.00 0.00 53 1012.0
20260509213600 18 256 3.2 4.8 0.00 0.00 0.00 52 1012.0
20260509213057 18 322 6.4 6.4 0.00 0.00 0.00 52 1011.8
20260509212555 18 52 9.7 12.9 0.00 0.00 0.00 52 1011.9
20260509212052 18 166 3.2 4.8 0.00 0.00 0.00 53 1011.7
20260509211547 18 79 0.0 1.6 0.00 0.00 0.00 54 1011.6
20260509211044 19 160 1.6 1.6 0.00 0.00 0.00 51 1011.7
20260509210541 19 71 3.2 3.2 0.00 0.00 0.00 51 1011.6
20260509210037 18 312 6.4 6.4 0.00 0.00 0.00 54 1011.7
20260509205532 20 60 3.2 4.8 0.00 0.00 0.00 52 1011.5
20260509205028 19 120 1.6 3.2 0.00 0.00 0.00 49 1011.6
20260509204524 18 41 3.2 3.2 0.00 0.00 0.00 52 1011.8
20260509204021 19 275 11.3 12.9 0.00 0.00 0.00 50 1011.6
20260509203516 18 329 3.2 3.2 0.00 0.00 0.00 51 1011.8
20260509203015 19 303 4.8 9.7 0.00 0.00 0.00 49 1011.5
20260509202509 19 170 1.6 1.6 0.00 0.00 0.00 49 1011.5
20260509202005 19 148 3.2 4.8 0.00 0.00 0.00 48 1011.6
20260509201500 19 38 0.0 1.6 0.00 0.00 0.00 49 1011.4
20260509200958 19 314 8.0 9.7 0.00 0.00 0.00 49 1011.3
20260509200452 19 135 1.6 1.6 0.00 0.00 0.00 50 1011.3
20260509195948 18 93 1.6 3.2 0.00 0.00 0.00 47 1011.2
20260509195439 18 271 8.0 9.7 0.00 0.00 0.00 47 1011.4
20260509194938 18 295 9.7 14.5 0.00 0.00 0.00 46 1011.5
20260509194434 19 121 3.2 3.2 0.00 0.00 0.00 49 1011.3
20260509193932 19 310 4.8 6.4 0.00 0.00 0.00 48 1011.2
20260509193431 20 275 4.8 6.4 0.00 0.00 0.00 47 1011.1
20260509192927 21 189 6.4 11.3 0.00 0.00 0.00 48 1011.2
20260509192424 21 339 3.2 3.2 0.00 0.00 0.00 47 1011.2
20260509191919 21 83 3.2 6.4 0.00 0.00 0.00 48 1011.3
20260509191415 21 264 8.0 9.7 0.00 0.00 0.00 45 1011.2
20260509190911 20 211 8.0 12.9 0.00 0.00 0.00 47 1011.3
20260509190408 20 258 9.7 11.3 0.00 0.00 0.00 50 1011.4
20260509185906 18 136 1.6 3.2 0.00 0.00 0.00 50 1011.1
20260509185402 19 199 8.0 11.3 0.00 0.00 0.00 50 1011.2
20260509184858 20 146 3.2 3.2 0.00 0.00 0.00 47 1011.0
20260509184355 20 265 8.0 11.3 0.00 0.00 0.00 50 1011.3
20260509183854 20 151 4.8 6.4 0.00 0.00 0.00 46 1011.2
20260509183348 20 53 3.2 3.2 0.00 0.00 0.00 45 1011.3
20260509182844 19 312 4.8 4.8 0.00 0.00 0.00 53 1011.2
20260509182341 18 153 6.4 11.3 0.00 0.00 0.00 47 1011.3
20260509181838 18 224 3.2 6.4 0.00 0.00 0.00 49 1011.4
20260509181335 19 315 6.4 9.7 0.00 0.00 0.00 48 1011.1
20260509180832 18 245 4.8 4.8 0.00 0.00 0.00 50 1011.1
20260509180328 18 110 1.6 3.2 0.00 0.00 0.00 48 1011.3
20260509175825 19 150 1.6 4.8 0.00 0.00 0.00 50 1011.3
20260509175321 19 117 3.2 4.8 0.00 0.00 0.00 50 1011.2
20260509174818 18 257 9.7 16.1 0.00 0.00 0.00 48 1011.3
20260509174313 18 205 1.6 1.6 0.00 0.00 0.00 52 1011.4
20260509173810 18 64 1.6 1.6 0.00 0.00 0.00 51 1011.4
20260509173305 19 303 8.0 11.3 0.00 0.00 0.00 52 1011.6
20260509172802 20 292 9.7 12.9 0.00 0.00 0.00 49 1011.5
20260509172259 18 60 0.0 1.6 0.00 0.00 0.00 58 1011.5
20260509171754 18 140 6.4 11.3 0.00 0.00 0.00 56 1011.6
20260509171250 18 230 3.2 3.2 0.00 0.00 0.00 56 1011.6
20260509170747 18 206 1.6 3.2 0.00 0.00 0.00 57 1011.9
20260509170243 17 236 6.4 12.9 0.00 0.00 0.00 54 1011.7
20260509165742 18 154 1.6 3.2 0.00 0.00 0.00 55 1011.9
20260509165237 18 275 14.5 17.7 0.00 0.00 0.00 53 1011.9